Content
SEND FEEDBACK

Daily
Averages
Monthly
Summary
Colombia

FONTIBON, COLOMBIA


Home > South America > Colombia
Elevation: 8360 feet     Latitude: 04 24N     Longitude: 074 06W

WEATHER
 
SELECT A DAY
Number of Records: 168,828;   Date Range: 6/30/96 - 7/28/14
 
SHARE

PRINT THIS DATA

[ ← Previous Day ]
WEATHER ALMANAC - AUGUST 14, 2013
[ Next Day → ]
[ °C ]   °F
Weather ElementAverageHighLow
Temperature57.6 °F68 °F (12:00 pm) (7:00 pm)
Dewpoint46.9 °F62.6 °F (12:30 pm) (7:00 pm)
Humidity68.2 %100 % (1:00 am)29 % (1:00 pm)
Barometer30.30 in30.37 in (10:00 pm)30.22 in (3:00 pm)
Wind Speed9.2 mph17.3 mph (11:00 am)
Weather ElementAverage
Visibility7.1 mi
Wind DirectionE (92.4 °)

Weather ElementTotal
Precipitation---
Heating Degree Days31 (Base 65)
Averaged from 33 records on August 14, 2013
WEATHER CONDITIONS BREAKOUT
WIND DIRECTION BREAKOUT
WEATHER BY HOUR - AUGUST 14, 2013
[ °C ]   °F
Local TimeTemperatureDewpointHumidityBarometerVisibilityWind DirectionWind SpeedGust SpeedPrecipitationEventsConditions
1:00 AM52.0 °F51.0 °F95 %6.0 miNE (50°)4.5 mphRainLight Drizzle
1:00 AM51.8 °F51.8 °F100 %30.34 in5.6 miNE (50°)3.5 mphLight Drizzle
2:00 AM53.6 °F50.0 °F88 %30.32 in6.2 miENE (70°)5.8 mphMostly Cloudy
3:00 AM51.8 °F50.0 °F94 %30.31 in6.2 miNorth (350°)3.5 mphLight Drizzle
4:00 AM51.0 °F50.0 °F94 %9.0 miENE (60°)4.5 mphHaze
4:00 AM51.8 °F50.0 °F94 %30.29 in6.2 miENE (60°)3.5 mphLight Drizzle
5:00 AM50.0 °F50.0 °F100 %30.29 in6.2 miNE (50°)5.8 mphScattered Clouds
5:30 AM50.0 °F50.0 °F100 %30.30 in6.2 miNE (50°)6.9 mphScattered Clouds
6:00 AM50.0 °F48.2 °F94 %30.30 in6.2 miENE (60°)6.9 mphScattered Clouds
7:00 AM53.0 °F50.0 °F86 %11.0 miNE (50°)11.2 mphHaze
7:00 AM51.8 °F50.0 °F94 %30.32 in6.2 miNE (50°)11.5 mphScattered Clouds
8:00 AM57.2 °F50.0 °F77 %30.35 in6.2 miENE (60°)6.9 mphScattered Clouds
9:00 AM60.8 °F51.8 °F72 %30.34 in6.2 miENE (60°)13.8 mphScattered Clouds
10:00 AM64.0 °F47.0 °F44 %11.0 miESE (120°)15.7 mphHaze
10:00 AM64.4 °F48.2 °F56 %30.34 in6.2 miESE (120°)16.1 mphScattered Clouds
11:00 AM66.2 °F48.2 °F52 %30.32 in6.2 miSSE (150°)17.3 mphScattered Clouds
12:00 PM68.0 °F48.2 °F49 %30.30 in6.2 miEast (100°)17.3 mphScattered Clouds
12:30 PM68.0 °F62.6 °F83 %30.28 in6.2 miSE (140°)16.1 mphScattered Clouds
1:00 PM67.0 °F42.0 °F29 %12.0 miESE (120°)11.2 mphHaze
1:00 PM68.0 °F42.8 °F40 %30.27 in6.2 miESE (120°)11.5 mphScattered Clouds
2:00 PM68.0 °F44.6 °F43 %30.23 in6.2 miEast (100°)13.8 mphScattered Clouds
3:00 PM68.0 °F42.8 °F40 %30.22 in6.2 miESE (120°)13.8 mphMostly Cloudy
4:00 PM66.0 °F49.0 °F44 %12.0 miNE (50°)11.2 mphHaze
4:00 PM66.2 °F50.0 °F56 %30.22 in6.2 miNE (50°)11.5 mphMostly Cloudy
5:00 PM64.4 °F44.6 °F49 %30.23 in6.2 miESE (120°)10.4 mphMostly Cloudy
6:00 PM62.6 °F48.2 °F59 %30.25 in6.2 miSE (140°)4.6 mphMostly Cloudy
7:00 PM61.0 °F44.0 °F43 %9.0 miEast (90°)6.7 mphHaze
7:00 PM0.0 °F0.0 °F30.30 in6.2 miEast (90°)6.9 mphScattered Clouds
8:00 PM59.0 °F44.6 °F59 %30.33 in6.2 miESE (110°)11.5 mphScattered Clouds
9:00 PM57.2 °F46.4 °F67 %30.34 in6.2 miVariable2.3 mphScattered Clouds
10:00 PM61.0 °F44.0 °F43 %9.0 miEast (90°)6.7 mphHaze
10:00 PM59.0 °F48.2 °F67 %30.37 in6.2 miESE (120°)6.9 mphScattered Clouds
11:00 PM57.2 °F48.2 °F72 %30.37 in6.2 miEast (80°)3.5 mphScattered Clouds
Hourly data recorded from SKBO, located miles away from Fontibon, Colombia







STORIES FROM OUR PARTNERS